Location: Unspecified
(54.1780°N, 0.0000°E)
Time: 01:01:09
(UTC+00:00)

Altair - Pass Details

Date: 20 June 2019
Orbit: 1501 x 1683 km, 47.2° (Epoch: 14 October)

Event Time Altitude Azimuth Distance (km) Brightness Sun altitude
Rises 03:57:41 0° 284° (WNW) 4,893 9.8 2.7°
Reaches altitude 10° 04:02:24 10° 266° (W) 3,925 9.2 3.2°
Maximum altitude 04:07:53 16° 232° (SW) 3,450 8.8 3.8°
Drops below altitude 10° 04:13:24 10° 198° (SSW) 3,939 9.2 4.5°
Sets 04:18:12 0° 179° (S) 4,919 9.8 5.1°
